This is the latest recevied weather packets stored in our database for station/object KN4MGS. If no packets are shown the sender has not sent any weather packets the latest 10 day(s).
| Time | Temp. | Humidity | Pressure | Rain* | Wind** | Luminosity | Snow |
|---|---|---|---|---|---|---|---|
| 1777650266 | 17.22° C | 54% | 1019.5 hPa | 0 mm | - | 630 W/m² | - |
| 1777649962 | 17.78° C | 54% | 1019.6 hPa | 0 mm | - | 461 W/m² | - |
| 1777649661 | 18.33° C | 52% | 1019.7 hPa | 0 mm | - | 367 W/m² | - |
| 1777649356 | 17.22° C | 53% | 1019.7 hPa | 0 mm | - | 276 W/m² | - |
| 1777649053 | 17.78° C | 54% | 1019.7 hPa | 0 mm | - | 664 W/m² | - |
| 1777648751 | 17.22° C | 53% | 1019.3 hPa | 0 mm | - | 776 W/m² | - |
| 1777648447 | 17.22° C | 54% | 1019.5 hPa | 0 mm | - | 592 W/m² | - |
| 1777648143 | 16.67° C | 57% | 1019.6 hPa | 0 mm | - | 582 W/m² | - |
| 1777647840 | 17.78° C | 54% | 1019.5 hPa | 0 mm | - | 777 W/m² | - |
| 1777647536 | 18.33° C | 54% | 1019.5 hPa | 0 mm | - | 737 W/m² | - |
| 1777647233 | 17.22° C | 54% | 1019.6 hPa | 0 mm | - | 751 W/m² | - |
| 1777646930 | 17.78° C | 54% | 1019.5 hPa | 0 mm | - | 690 W/m² | - |
| 1777646625 | 16.67° C | 58% | 1019.7 hPa | 0 mm | - | 625 W/m² | - |
| 1777646322 | 16.11° C | 55% | 1019.5 hPa | 0 mm | - | 717 W/m² | - |
| 1777646019 | 16.11° C | 55% | 1019.5 hPa | 0 mm | - | 738 W/m² | - |
| 1777645715 | 15.56° C | 55% | 1019.5 hPa | 0 mm | - | 456 W/m² | - |
| 1777645412 | 15.56° C | 56% | 1019.9 hPa | 0 mm | - | 427 W/m² | - |
| 1777645108 | 16.11° C | 57% | 1019.7 hPa | 0 mm | - | 525 W/m² | - |
| 1777644805 | 15.56° C | 59% | 1019.7 hPa | 0 mm | - | 612 W/m² | - |
| 1777644503 | 15° C | 59% | 1019.9 hPa | 0 mm | - | 358 W/m² | - |
| 1777644198 | 15.56° C | 59% | 1019.9 hPa | 0 mm | - | 422 W/m² | - |
| 1777643895 | 14.44° C | 59% | 1019.5 hPa | 0 mm | - | 598 W/m² | - |
| 1777643593 | 15° C | 60% | 1019.5 hPa | 0 mm | - | 456 W/m² | - |
| 1777643290 | 15° C | 60% | 1019.5 hPa | 0 mm | - | 365 W/m² | - |
| 1777642986 | 14.44° C | 61% | 1019.7 hPa | 0 mm | - | 331 W/m² | - |
* Rain latest hour (hover to see other rain measurements)
** Current wind speed in m/s (hover to see current wind gust speed)